MQT84M LIPZ-LOWI

Flight info

Callsign MQT84M
Flight time 0h 34m
Altitude 18000
Route ROKIB Z468 EKPEB/N0337F160 Z468 BRENO BRENO3A
Aircraft A320/M-SDE3FGHIRWY/LB1

Departure

Time 2026-05-05 23:02
Airport Venice Marco Polo Airport (LIPZ)

Arrival

Time 2026-05-05 23:36
Airport Innsbruck Airport (LOWI)
Time Latitude Longitude Altitude Speed Heading
2026-05-05 22:37 45.50613 12.34203 14 ft 0 kts 269°
2026-05-05 22:54 45.50613 12.34232 14 ft 4 kts 268°
2026-05-05 22:54 45.50614 12.34269 14 ft 4 kts 267°
2026-05-05 22:55 45.50616 12.34307 14 ft 4 kts 266°
2026-05-05 22:55 45.50617 12.34336 14 ft 0 kts 266°
2026-05-05 22:57 45.50617 12.34333 14 ft 1 kts 263°
2026-05-05 22:57 45.50606 12.34322 14 ft 3 kts 199°
2026-05-05 22:57 45.50583 12.34324 15 ft 4 kts 176°
2026-05-05 22:57 45.50551 12.34328 15 ft 5 kts 175°
2026-05-05 22:58 45.50512 12.34333 16 ft 6 kts 174°
2026-05-05 22:58 45.50468 12.34339 17 ft 7 kts 174°
2026-05-05 22:58 45.50422 12.34345 19 ft 7 kts 174°
2026-05-05 22:58 45.50367 12.34351 20 ft 10 kts 178°
2026-05-05 22:59 45.50283 12.34336 19 ft 15 kts 210°
2026-05-05 22:59 45.50186 12.34211 17 ft 21 kts 222°
2026-05-05 22:59 45.50064 12.34058 13 ft 26 kts 221°
2026-05-05 22:59 45.49922 12.33878 14 ft 28 kts 221°
2026-05-05 23:00 45.49660 12.33579 16 ft 24 kts 216°
2026-05-05 23:00 45.49541 12.33557 16 ft 15 kts 138°
2026-05-05 23:00 45.49466 12.33672 15 ft 17 kts 133°
2026-05-05 23:01 45.49448 12.33820 37 ft 20 kts 47°
2026-05-05 23:01 45.49671 12.34108 9 ft 77 kts 41°
2026-05-05 23:01 45.50214 12.34801 13 ft 133 kts 41°
2026-05-05 23:01 45.50978 12.35793 306 ft 152 kts 43°
2026-05-05 23:02 45.51753 12.36859 873 ft 159 kts 45°
2026-05-05 23:02 45.52554 12.38006 1444 ft 167 kts 53°
2026-05-05 23:02 45.53158 12.39510 1798 ft 187 kts 74°
2026-05-05 23:02 45.53431 12.41440 2080 ft 212 kts 88°
2026-05-05 23:03 45.53434 12.43693 2323 ft 244 kts 96°
2026-05-05 23:03 45.53252 12.46243 2700 ft 273 kts 100°
2026-05-05 23:03 45.52934 12.48810 3264 ft 288 kts 105°
2026-05-05 23:03 45.52285 12.51306 4371 ft 281 kts 122°
2026-05-05 23:04 45.51077 12.53394 5464 ft 275 kts 145°
2026-05-05 23:04 45.49419 12.54612 6524 ft 266 kts 172°
2026-05-05 23:04 45.47612 12.54539 7433 ft 259 kts 202°
2026-05-05 23:04 45.46129 12.53165 8373 ft 255 kts 232°
2026-05-05 23:05 45.45389 12.50907 9356 ft 256 kts 261°
2026-05-05 23:05 45.45600 12.48410 10295 ft 260 kts 291°
2026-05-05 23:05 45.46425 12.46117 11186 ft 260 kts 294°
2026-05-05 23:05 45.47252 12.43837 12084 ft 258 kts 294°
2026-05-05 23:06 45.48046 12.41561 12945 ft 258 kts 289°
2026-05-05 23:06 45.48669 12.39060 13229 ft 278 kts 282°
2026-05-05 23:06 45.49175 12.36332 13450 ft 300 kts 281°
2026-05-05 23:06 45.49698 12.33332 13646 ft 322 kts 281°
2026-05-05 23:07 45.50266 12.30224 14140 ft 332 kts 282°
2026-05-05 23:07 45.50889 12.27035 14787 ft 336 kts 282°
2026-05-05 23:07 45.51502 12.24062 15400 ft 338 kts 283°
2026-05-05 23:07 45.52190 12.20844 16069 ft 341 kts 283°
2026-05-05 23:08 45.52898 12.17603 16760 ft 344 kts 283°
2026-05-05 23:08 45.53622 12.14339 17441 ft 347 kts 283°
2026-05-05 23:08 45.54352 12.11043 17890 ft 350 kts 283°
2026-05-05 23:08 45.55037 12.07935 17983 ft 352 kts 283°
2026-05-05 23:09 45.55765 12.04599 18001 ft 353 kts 283°
2026-05-05 23:09 45.56330 12.02007 18001 ft 353 kts 283°
2026-05-05 23:09 45.57106 11.98684 17999 ft 356 kts 288°
2026-05-05 23:09 45.58088 11.96064 18000 ft 362 kts 299°
2026-05-05 23:10 45.59671 11.93392 18001 ft 370 kts 311°
2026-05-05 23:10 45.61762 11.91191 18001 ft 378 kts 325°
2026-05-05 23:10 45.63815 11.89752 18002 ft 381 kts 329°
2026-05-05 23:10 45.66208 11.88125 18002 ft 381 kts 329°
2026-05-05 23:11 45.68598 11.86488 18007 ft 381 kts 329°
2026-05-05 23:11 45.69699 11.85730 18010 ft 381 kts 329°
2026-05-05 23:11 45.72088 11.84083 18013 ft 381 kts 329°
2026-05-05 23:11 45.74476 11.82434 18036 ft 382 kts 329°
2026-05-05 23:12 45.76972 11.81066 18077 ft 390 kts 344°
2026-05-05 23:12 45.78865 11.80809 18613 ft 392 kts 356°
2026-05-05 23:12 45.79955 11.80870 18944 ft 393 kts 359°
2026-05-05 23:12 45.82931 11.81078 19674 ft 394 kts 358°
2026-05-05 23:13 45.85678 11.81266 20282 ft 397 kts 358°
2026-05-05 23:13 45.88267 11.81449 20753 ft 400 kts 359°
2026-05-05 23:13 45.91065 11.81662 21265 ft 404 kts 359°
2026-05-05 23:13 45.93883 11.81884 21807 ft 408 kts 359°
2026-05-05 23:14 45.96727 11.82110 22322 ft 411 kts 359°
2026-05-05 23:14 45.97832 11.82197 22515 ft 413 kts 359°
2026-05-05 23:14 46.00857 11.82446 23106 ft 417 kts 359°
2026-05-05 23:14 46.03579 11.82668 23623 ft 421 kts 359°
2026-05-05 23:15 46.06482 11.82897 23915 ft 425 kts 359°
2026-05-05 23:15 46.09432 11.83125 23998 ft 425 kts 359°
2026-05-05 23:15 46.12386 11.83332 24011 ft 424 kts 358°
2026-05-05 23:15 46.15325 11.83515 24012 ft 424 kts 358°
2026-05-05 23:16 46.17217 11.83626 24009 ft 424 kts 358°
2026-05-05 23:16 46.19713 11.83766 24012 ft 424 kts 358°
2026-05-05 23:16 46.22661 11.83924 24015 ft 424 kts 358°
2026-05-05 23:16 46.25608 11.84081 24009 ft 424 kts 358°
2026-05-05 23:17 46.28556 11.84241 24009 ft 424 kts 358°
2026-05-05 23:17 46.31466 11.84401 24012 ft 423 kts 358°
2026-05-05 23:17 46.33840 11.84535 24012 ft 423 kts 358°
2026-05-05 23:17 46.36752 11.84708 23940 ft 420 kts 358°
2026-05-05 23:18 46.39444 11.84869 23720 ft 413 kts 358°
2026-05-05 23:18 46.42289 11.85038 23467 ft 406 kts 358°
2026-05-05 23:18 46.45104 11.85204 23193 ft 404 kts 358°
2026-05-05 23:18 46.47906 11.85367 22924 ft 401 kts 358°
2026-05-05 23:19 46.50622 11.85522 22657 ft 400 kts 358°
2026-05-05 23:19 46.53029 11.85662 22415 ft 398 kts 358°
2026-05-05 23:19 46.55788 11.85818 22150 ft 396 kts 358°
2026-05-05 23:19 46.58434 11.85965 21894 ft 394 kts 358°
2026-05-05 23:20 46.61170 11.86119 21633 ft 392 kts 358°
2026-05-05 23:20 46.63887 11.86277 21378 ft 390 kts 358°
2026-05-05 23:20 46.66593 11.86438 21116 ft 388 kts 358°
2026-05-05 23:20 46.68520 11.86563 20926 ft 387 kts 359°
2026-05-05 23:21 46.71078 11.86781 20682 ft 385 kts 359°
2026-05-05 23:21 46.73746 11.86951 20430 ft 383 kts 357°
2026-05-05 23:21 46.76324 11.87080 20187 ft 380 kts 358°
2026-05-05 23:21 46.78951 11.87200 19812 ft 376 kts 357°
2026-05-05 23:22 46.81567 11.87325 19336 ft 376 kts 358°
2026-05-05 23:22 46.84185 11.87462 18857 ft 377 kts 358°
2026-05-05 23:22 46.86142 11.87571 18492 ft 377 kts 358°
2026-05-05 23:22 46.88795 11.87729 17974 ft 376 kts 358°
2026-05-05 23:23 46.91402 11.87888 17486 ft 374 kts 358°
2026-05-05 23:23 46.93887 11.88041 17020 ft 372 kts 358°
2026-05-05 23:23 46.96461 11.88195 16544 ft 369 kts 359°
2026-05-05 23:23 46.99016 11.88341 16080 ft 365 kts 359°
2026-05-05 23:24 47.01549 11.88487 15606 ft 363 kts 359°
2026-05-05 23:24 47.03019 11.88571 15324 ft 360 kts 359°
2026-05-05 23:24 47.06128 11.88760 14751 ft 359 kts 359°
2026-05-05 23:24 47.08595 11.88913 14298 ft 351 kts 359°
2026-05-05 23:25 47.10961 11.89059 13987 ft 342 kts 359°
2026-05-05 23:25 47.13246 11.89199 13925 ft 331 kts 358°
2026-05-05 23:25 47.15523 11.89333 13933 ft 330 kts 358°
2026-05-05 23:25 47.17770 11.89468 13913 ft 317 kts 358°
2026-05-05 23:26 47.19950 11.89595 13159 ft 322 kts 359°
2026-05-05 23:26 47.22120 11.89717 12294 ft 325 kts 360°
2026-05-05 23:26 47.24387 11.89845 11414 ft 326 kts
2026-05-05 23:26 47.26655 11.89871 10559 ft 326 kts 355°
2026-05-05 23:27 47.28904 11.89519 9732 ft 325 kts 349°
2026-05-05 23:27 47.31104 11.88805 8868 ft 323 kts 344°
2026-05-05 23:27 47.33254 11.87998 8541 ft 314 kts 345°
2026-05-05 23:27 47.35330 11.87179 8378 ft 304 kts 343°
2026-05-05 23:28 47.37298 11.86316 8228 ft 294 kts 337°
2026-05-05 23:28 47.38925 11.85058 8112 ft 282 kts 320°
2026-05-05 23:28 47.40158 11.82894 7744 ft 272 kts 292°
2026-05-05 23:28 47.40458 11.80373 7583 ft 251 kts 260°
2026-05-05 23:29 47.40134 11.78778 7497 ft 243 kts 240°
2026-05-05 23:29 47.39162 11.76545 7176 ft 242 kts 230°
2026-05-05 23:29 47.38024 11.74732 6955 ft 238 kts 221°
2026-05-05 23:29 47.36813 11.73179 6929 ft 225 kts 218°
2026-05-05 23:30 47.35614 11.71796 6862 ft 213 kts 215°
2026-05-05 23:30 47.34817 11.70936 6810 ft 206 kts 213°
2026-05-05 23:30 47.33370 11.69286 6736 ft 190 kts 220°
2026-05-05 23:30 47.32485 11.67869 6669 ft 189 kts 232°
2026-05-05 23:31 47.31738 11.66203 6327 ft 203 kts 238°
2026-05-05 23:31 47.31106 11.64344 5986 ft 201 kts 244°
2026-05-05 23:31 47.30575 11.62458 5722 ft 198 kts 249°
2026-05-05 23:31 47.30235 11.60921 5542 ft 186 kts 252°
2026-05-05 23:32 47.29918 11.59201 5528 ft 162 kts 254°
2026-05-05 23:32 47.29665 11.57679 5439 ft 146 kts 253°
2026-05-05 23:32 47.29407 11.56199 5113 ft 152 kts 253°
2026-05-05 23:32 47.29127 11.54809 4795 ft 154 kts 252°
2026-05-05 23:33 47.28799 11.53305 4487 ft 155 kts 251°
2026-05-05 23:33 47.28466 11.51811 4239 ft 153 kts 252°
2026-05-05 23:33 47.28157 11.50328 4007 ft 150 kts 252°
2026-05-05 23:33 47.27878 11.48883 3939 ft 145 kts 254°
2026-05-05 23:34 47.27634 11.47431 3814 ft 149 kts 256°
2026-05-05 23:34 47.27419 11.45950 3627 ft 151 kts 257°
2026-05-05 23:34 47.27191 11.44426 3391 ft 153 kts 255°
2026-05-05 23:34 47.26958 11.42885 3179 ft 153 kts 257°
2026-05-05 23:35 47.26773 11.41343 2906 ft 153 kts 260°
2026-05-05 23:35 47.26609 11.39812 2674 ft 150 kts 261°
2026-05-05 23:35 47.26441 11.38340 2441 ft 145 kts 261°
2026-05-05 23:35 47.26283 11.36876 2131 ft 143 kts 263°
2026-05-05 23:36 47.26134 11.35492 1917 ft 126 kts 263°
2026-05-05 23:36 47.26030 11.34456 1904 ft 68 kts 261°
2026-05-05 23:36 47.25975 11.33973 1906 ft 39 kts 260°
2026-05-05 23:36 47.25959 11.33830 1908 ft 12 kts 261°
2026-05-05 23:37 47.25928 11.33706 1904 ft 14 kts 213°
2026-05-05 23:37 47.25856 11.33787 1900 ft 16 kts 125°
2026-05-05 23:37 47.25787 11.33930 1896 ft 18 kts 123°
2026-05-05 23:37 47.25778 11.34121 1903 ft 20 kts 81°
2026-05-05 23:38 47.25793 11.34264 1907 ft 22 kts 81°
2026-05-05 23:38 47.25819 11.34500 1901 ft 25 kts 80°
2026-05-05 23:38 47.25844 11.34754 1904 ft 22 kts 80°
2026-05-05 23:38 47.25866 11.34955 1900 ft 14 kts 81°
2026-05-05 23:39 47.25866 11.35075 1900 ft 8 kts 127°
2026-05-05 23:39 47.25827 11.35093 1901 ft 0 kts 171°
2026-05-05 23:39 47.25822 11.35094 1903 ft 0 kts 171°